Time,TemperatureF,DewpointF,PressureIn,WindDirection,WindDirectionDegrees,WindSpeedMPH,WindSpeedGustMPH,Humidity,HourlyPrecipIn,Conditions,Clouds,dailyrainin,SoftwareType,DateUTC
2013-01-09 00:05:00,34.6,31.0,30.04,SE,143,8.0,11.0,85,0.00,,,0.00,weatherlink.com 1.10,2013-01-09 05:05:00,
2013-01-09 00:20:00,34.6,31.0,30.03,SSE,158,3.0,11.0,85,0.00,,,0.00,weatherlink.com 1.10,2013-01-09 05:20:00,
2013-01-09 00:35:00,34.5,31.0,30.02,South,185,4.0,11.0,85,0.00,,,0.00,weatherlink.com 1.10,2013-01-09 05:35:00,
2013-01-09 00:50:00,34.4,30.0,30.01,South,190,4.0,11.0,85,0.00,,,0.00,weatherlink.com 1.10,2013-01-09 05:50:00,
2013-01-09 01:05:00,34.5,31.0,30.01,South,182,8.0,9.0,85,0.00,,,0.00,weatherlink.com 1.10,2013-01-09 06:05:00,
2013-01-09 01:20:00,34.6,30.0,30.00,SE,143,7.0,13.0,84,0.00,,,0.00,weatherlink.com 1.10,2013-01-09 06:20:00,
2013-01-09 01:35:00,34.6,30.0,29.99,SE,142,5.0,13.0,83,0.00,,,0.00,weatherlink.com 1.10,2013-01-09 06:35:00,
2013-01-09 01:50:00,34.4,30.0,29.98,SSE,163,5.0,14.0,84,0.00,,,0.00,weatherlink.com 1.10,2013-01-09 06:50:00,
2013-01-09 02:06:00,34.0,30.0,29.97,SSE,155,2.0,10.0,84,0.00,,,0.00,weatherlink.com 1.10,2013-01-09 07:06:00,
2013-01-09 03:06:00,35.4,29.0,29.92,South,175,9.0,19.0,78,0.00,,,0.00,weatherlink.com 1.10,2013-01-09 08:06:00,
2013-01-09 03:21:00,35.6,29.0,29.92,South,190,9.0,15.0,77,0.00,,,0.00,weatherlink.com 1.10,2013-01-09 08:21:00,
2013-01-09 03:36:00,35.7,29.0,29.91,South,179,10.0,16.0,77,0.00,,,0.00,weatherlink.com 1.10,2013-01-09 08:36:00,
2013-01-09 03:51:00,35.7,29.0,29.89,SSW,192,8.0,21.0,77,0.00,,,0.00,weatherlink.com 1.10,2013-01-09 08:51:00,
2013-01-09 04:06:00,35.8,29.0,29.89,South,181,3.0,21.0,76,0.00,,,0.00,weatherlink.com 1.10,2013-01-09 09:06:00,
2013-01-09 04:21:00,36.0,29.0,29.88,SW,215,12.0,23.0,75,0.00,,,0.00,weatherlink.com 1.10,2013-01-09 09:21:00,
2013-01-09 04:36:00,35.9,29.0,29.89,South,190,13.0,19.0,76,0.00,,,0.00,weatherlink.com 1.10,2013-01-09 09:36:00,
2013-01-09 04:51:00,35.0,31.0,29.90,SSW,200,13.0,22.0,84,0.00,,,0.00,weatherlink.com 1.10,2013-01-09 09:51:00,
2013-01-09 05:06:00,32.6,31.0,29.88,SSW,205,15.0,19.0,92,0.00,,,0.00,weatherlink.com 1.10,2013-01-09 10:06:00,
2013-01-09 05:21:00,32.8,31.0,29.86,South,178,8.0,17.0,93,0.00,,,0.00,weatherlink.com 1.10,2013-01-09 10:21:00,
2013-01-09 05:36:00,33.0,31.0,29.85,South,183,8.0,20.0,93,0.00,,,0.00,weatherlink.com 1.10,2013-01-09 10:36:00,
2013-01-09 05:51:00,33.1,31.0,29.84,South,177,9.0,17.0,93,0.00,,,0.00,weatherlink.com 1.10,2013-01-09 10:51:00,
2013-01-09 06:06:00,33.3,31.0,29.82,South,188,7.0,21.0,92,0.00,,,0.00,weatherlink.com 1.10,2013-01-09 11:06:00,
2013-01-09 06:22:00,33.5,31.0,29.81,SSE,165,6.0,18.0,91,0.00,,,0.00,weatherlink.com 1.10,2013-01-09 11:22:00,
2013-01-09 07:22:00,34.7,31.0,29.82,SSW,202,7.0,15.0,87,0.01,,,0.01,weatherlink.com 1.10,2013-01-09 12:22:00,
2013-01-09 07:37:00,34.8,31.0,29.82,South,184,6.0,17.0,87,0.01,,,0.01,weatherlink.com 1.10,2013-01-09 12:37:00,
2013-01-09 07:52:00,34.7,31.0,29.83,South,188,5.0,13.0,87,0.01,,,0.01,weatherlink.com 1.10,2013-01-09 12:52:00,
2013-01-09 08:07:00,34.7,31.0,29.82,South,175,4.0,11.0,87,0.00,,,0.01,weatherlink.com 1.10,2013-01-09 13:07:00,
2013-01-09 08:22:00,34.6,31.0,29.82,South,175,2.0,12.0,88,0.01,,,0.02,weatherlink.com 1.10,2013-01-09 13:22:00,
2013-01-09 08:37:00,34.9,32.0,29.82,SSW,207,7.0,12.0,88,0.01,,,0.02,weatherlink.com 1.10,2013-01-09 13:37:00,
2013-01-09 08:52:00,35.1,32.0,29.82,South,170,4.0,15.0,88,0.01,,,0.02,weatherlink.com 1.10,2013-01-09 13:52:00,
2013-01-09 09:07:00,35.1,32.0,29.82,SSW,195,5.0,8.0,89,0.01,,,0.02,weatherlink.com 1.10,2013-01-09 14:07:00,
2013-01-09 09:22:00,35.5,33.0,29.82,SSW,211,6.0,11.0,90,0.00,,,0.02,weatherlink.com 1.10,2013-01-09 14:22:00,
2013-01-09 09:37:00,36.5,33.0,29.82,WSW,249,4.0,17.0,88,0.00,,,0.02,weatherlink.com 1.10,2013-01-09 14:37:00,
2013-01-09 09:52:00,36.9,33.0,29.82,West,271,7.0,18.0,87,0.00,,,0.02,weatherlink.com 1.10,2013-01-09 14:52:00,
2013-01-09 10:07:00,37.1,33.0,29.82,WSW,252,5.0,19.0,86,0.00,,,0.02,weatherlink.com 1.10,2013-01-09 15:07:00,
2013-01-09 10:22:00,37.3,33.0,29.83,West,266,8.0,22.0,84,0.00,,,0.02,weatherlink.com 1.10,2013-01-09 15:22:00,
2013-01-09 10:37:00,37.8,33.0,29.82,West,275,9.0,26.0,82,0.01,,,0.03,weatherlink.com 1.10,2013-01-09 15:37:00,
2013-01-09 10:52:00,37.9,33.0,29.82,West,262,20.0,29.0,81,0.01,,,0.03,weatherlink.com 1.10,2013-01-09 15:52:00,
2013-01-09 11:07:00,38.1,32.0,29.82,West,261,12.0,25.0,80,0.01,,,0.03,weatherlink.com 1.10,2013-01-09 16:07:00,
2013-01-09 11:22:00,38.2,33.0,29.82,WSW,237,12.0,33.0,80,0.01,,,0.03,weatherlink.com 1.10,2013-01-09 16:22:00,
2013-01-09 11:37:00,38.3,32.0,29.82,West,275,15.0,31.0,78,0.00,,,0.03,weatherlink.com 1.10,2013-01-09 16:37:00,
2013-01-09 11:52:00,38.8,33.0,29.82,West,265,15.0,24.0,78,0.00,,,0.03,weatherlink.com 1.10,2013-01-09 16:52:00,
2013-01-09 12:07:00,39.3,32.0,29.82,WSW,255,14.0,25.0,75,0.00,,,0.03,weatherlink.com 1.10,2013-01-09 17:07:00,
2013-01-09 12:22:00,39.0,31.0,29.82,West,267,12.0,31.0,73,0.00,,,0.03,weatherlink.com 1.10,2013-01-09 17:22:00,
2013-01-09 12:37:00,38.4,31.0,29.83,West,259,11.0,28.0,75,0.00,,,0.03,weatherlink.com 1.10,2013-01-09 17:37:00,
2013-01-09 12:52:00,38.2,31.0,29.84,WNW,289,18.0,34.0,75,0.00,,,0.03,weatherlink.com 1.10,2013-01-09 17:52:00,
2013-01-09 13:07:00,38.0,31.0,29.84,WSW,255,19.0,27.0,75,0.00,,,0.03,weatherlink.com 1.10,2013-01-09 18:07:00,
2013-01-09 13:22:00,37.6,31.0,29.84,WSW,257,12.0,26.0,76,0.00,,,0.03,weatherlink.com 1.10,2013-01-09 18:22:00,
2013-01-09 13:37:00,37.0,31.0,29.84,West,263,11.0,22.0,78,0.00,,,0.03,weatherlink.com 1.10,2013-01-09 18:37:00,
2013-01-09 13:52:00,37.0,30.0,29.85,West,279,19.0,23.0,77,0.00,,,0.03,weatherlink.com 1.10,2013-01-09 18:52:00,
2013-01-09 14:07:00,36.9,30.0,29.86,West,261,13.0,25.0,76,0.00,,,0.03,weatherlink.com 1.10,2013-01-09 19:07:00,
2013-01-09 14:22:00,36.6,29.0,29.88,West,277,11.0,31.0,75,0.00,,,0.03,weatherlink.com 1.10,2013-01-09 19:22:00,
2013-01-09 14:37:00,36.6,30.0,29.89,West,267,22.0,30.0,76,0.00,,,0.03,weatherlink.com 1.10,2013-01-09 19:37:00,
2013-01-09 14:52:00,36.8,30.0,29.90,WSW,257,15.0,31.0,75,0.00,,,0.03,weatherlink.com 1.10,2013-01-09 19:52:00,
2013-01-09 15:07:00,37.0,29.0,29.92,West,261,14.0,28.0,74,0.00,,,0.03,weatherlink.com 1.10,2013-01-09 20:07:00,
2013-01-09 15:22:00,37.0,30.0,29.93,West,267,16.0,32.0,75,0.00,,,0.03,weatherlink.com 1.10,2013-01-09 20:22:00,
2013-01-09 15:37:00,36.7,29.0,29.94,West,259,7.0,28.0,75,0.00,,,0.03,weatherlink.com 1.10,2013-01-09 20:37:00,
2013-01-09 15:52:00,35.9,30.0,29.96,West,265,24.0,31.0,80,0.00,,,0.03,weatherlink.com 1.10,2013-01-09 20:52:00,
2013-01-09 16:07:00,34.4,30.0,29.96,West,277,11.0,24.0,83,0.00,,,0.00,weatherlink.com 1.10,2013-01-09 21:07:00,
2013-01-09 16:22:00,34.5,29.0,29.98,WNW,286,10.0,24.0,80,0.00,,,0.00,weatherlink.com 1.10,2013-01-09 21:22:00,
2013-01-09 16:37:00,34.5,29.0,30.00,West,263,10.0,23.0,79,0.00,,,0.00,weatherlink.com 1.10,2013-01-09 21:37:00,
2013-01-09 16:52:00,34.6,28.0,30.01,West,276,16.0,24.0,77,0.00,,,0.00,weatherlink.com 1.10,2013-01-09 21:52:00,
2013-01-09 17:08:00,34.6,28.0,30.03,West,270,13.0,22.0,77,0.00,,,0.00,weatherlink.com 1.10,2013-01-09 22:08:00,
2013-01-09 17:23:00,34.7,28.0,30.05,WSW,252,19.0,25.0,76,0.00,,,0.00,weatherlink.com 1.10,2013-01-09 22:23:00,
2013-01-09 17:38:00,34.8,27.0,30.06,WSW,244,16.0,23.0,73,0.00,,,0.00,weatherlink.com 1.10,2013-01-09 22:38:00,
2013-01-09 17:53:00,34.6,27.0,30.08,SW,231,12.0,24.0,74,0.00,,,0.00,weatherlink.com 1.10,2013-01-09 22:53:00,
2013-01-09 18:08:00,34.4,27.0,30.10,West,262,11.0,26.0,75,0.00,,,0.00,weatherlink.com 1.10,2013-01-09 23:08:00,
2013-01-09 18:23:00,34.3,27.0,30.12,West,267,6.0,25.0,76,0.00,,,0.00,weatherlink.com 1.10,2013-01-09 23:23:00,
2013-01-09 18:38:00,33.9,28.0,30.14,West,269,16.0,23.0,78,0.00,,,0.00,weatherlink.com 1.10,2013-01-09 23:38:00,
2013-01-09 18:53:00,33.6,28.0,30.16,West,265,10.0,20.0,80,0.00,,,0.00,weatherlink.com 1.10,2013-01-09 23:53:00,
2013-01-09 19:08:00,33.7,28.0,30.18,West,279,9.0,22.0,78,0.00,,,0.00,weatherlink.com 1.10,2013-01-10 00:08:00,
2013-01-09 19:23:00,34.2,26.0,30.19,WNW,294,18.0,29.0,72,0.00,,,0.00,weatherlink.com 1.10,2013-01-10 00:23:00,
2013-01-09 19:38:00,34.1,26.0,30.20,West,264,9.0,24.0,72,0.00,,,0.00,weatherlink.com 1.10,2013-01-10 00:38:00,
2013-01-09 19:53:00,34.2,26.0,30.22,WNW,295,17.0,28.0,72,0.00,,,0.00,weatherlink.com 1.10,2013-01-10 00:53:00,
2013-01-09 20:08:00,34.3,26.0,30.23,WSW,254,22.0,22.0,72,0.00,,,0.00,weatherlink.com 1.10,2013-01-10 01:08:00,
2013-01-09 20:23:00,34.4,26.0,30.24,West,261,13.0,22.0,71,0.00,,,0.00,weatherlink.com 1.10,2013-01-10 01:23:00,
2013-01-09 20:38:00,34.5,26.0,30.24,West,278,7.0,21.0,71,0.00,,,0.00,weatherlink.com 1.10,2013-01-10 01:38:00,
2013-01-09 20:53:00,34.6,26.0,30.25,WNW,284,9.0,21.0,72,0.00,,,0.00,weatherlink.com 1.10,2013-01-10 01:53:00,
2013-01-09 21:08:00,34.6,26.0,30.26,West,267,7.0,19.0,72,0.00,,,0.00,weatherlink.com 1.10,2013-01-10 02:08:00,
2013-01-09 21:23:00,34.7,27.0,30.27,West,259,4.0,19.0,73,0.00,,,0.00,weatherlink.com 1.10,2013-01-10 02:23:00,
2013-01-09 21:38:00,34.7,27.0,30.29,West,270,12.0,14.0,74,0.00,,,0.00,weatherlink.com 1.10,2013-01-10 02:38:00,
2013-01-09 21:53:00,34.8,27.0,30.29,WSW,258,9.0,19.0,73,0.00,,,0.00,weatherlink.com 1.10,2013-01-10 02:53:00,
2013-01-09 22:08:00,34.9,27.0,30.30,NW,313,4.0,14.0,73,0.00,,,0.00,weatherlink.com 1.10,2013-01-10 03:08:00,
2013-01-09 22:23:00,35.0,27.0,30.30,West,263,14.0,16.0,72,0.00,,,0.00,weatherlink.com 1.10,2013-01-10 03:23:00,
2013-01-09 22:38:00,35.3,27.0,30.31,West,276,10.0,23.0,72,0.00,,,0.00,weatherlink.com 1.10,2013-01-10 03:38:00,
2013-01-09 22:53:00,35.5,27.0,30.32,WSW,258,12.0,20.0,72,0.00,,,0.00,weatherlink.com 1.10,2013-01-10 03:53:00,
2013-01-09 23:08:00,35.7,27.0,30.33,WSW,248,10.0,21.0,72,0.00,,,0.00,weatherlink.com 1.10,2013-01-10 04:08:00,
2013-01-09 23:24:00,35.7,27.0,30.34,SW,233,8.0,22.0,72,0.00,,,0.00,weatherlink.com 1.10,2013-01-10 04:24:00,
2013-01-09 23:39:00,35.9,27.0,30.36,West,275,11.0,21.0,71,0.00,,,0.00,weatherlink.com 1.10,2013-01-10 04:39:00,
2013-01-09 23:54:00,35.8,27.0,30.37,West,277,11.0,19.0,71,0.00,,,0.00,weatherlink.com 1.10,2013-01-10 04:54:00,